Regional Weather Roundup
Issued by NWS State College, PA

Home | Current Version | Previous Version | Text Only | Print | Product List | Glossary On
Versions: 1 2 3 4 5 6 7 8 9 10 11 12 13 14 15 16 17 18 19 20 21 22 23 24 25 26 27 28 29 30 31 32 33 34 35 36 37 38 39 40 41 42 43 44 45 46 47 48 49 50
292
ASUS41 KCTP 082210
RWRCTP

REGIONAL WEATHER ROUNDUP
NATIONAL WEATHER SERVICE STATE COLLEGE PA
500 PM EST MON FEB 08 2016

Note: "fair" indicates few or no clouds below 12,000 feet with no
significant weather and/or obstructions to visibility.

* = STATION THAT DOES NOT REPORT PRECIPITATION /E.G. RAIN...SNOW...ETC/
    THUNDER OR FOG.

PAZ002>004-007>009-013>016-020>023-029>032-082300-
WESTERN PENNSYLVANIA

CITY           SKY/WX    TMP DP  RH WIND       PRES   REMARKS
ERIE           CLOUDY    41  32  70 S7        29.55R
MEADVILLE      LGT RAIN  38  30  73 S9        29.53S
FRANKLIN*      CLOUDY    36  30  80 S16       29.57R
NEW CASTLE     LGT RAIN  35  33  92 SW7       29.57R
BEAVER COUNTY  DRIZZLE   36  34  93 SW5       29.56R
BUTLER*        CLOUDY    36  30  80 S6        29.60S
PITTSBURGH INT LGT RAIN  37  33  85 SW8       29.57R
PITTSBURGH     CLOUDY    39  34  82 S8        29.57R
INDIANA*       CLOUDY    37  34  87 W13G20    29.61R
LATROBE        LGT RAIN  36  36 100 SW12      29.60R FOG
WASHINGTON CO* CLOUDY    37  32  81 SW9       29.58R
$$

PAZ004>006-010>012-017>019-024>028-033>037-041-042-045-046-049>053-082300-
CENTRAL PENNSYLVANIA

CITY           SKY/WX    TMP DP  RH WIND       PRES   REMARKS
BRADFORD       CLOUDY    36  22  56 SE8       29.54S
DUBOIS         CLOUDY    38  20  48 S6        29.55R
CLEARFIELD     CLOUDY    39  21  48 SE5       29.59R
JOHNSTOWN      CLOUDY    35  18  49 SE8       29.55R
ALTOONA        CLOUDY    38  20  48 SE7       29.59S
STATE COLLEGE  CLOUDY    37  23  56 SE3       29.61S
WILLIAMSPORT   MOCLDY    39  24  55 E3        29.65S
SELINSGROVE    CLOUDY    41  26  55 SE7       29.67R
FT INDIANTOWN  CLOUDY    39  27  63 E3        29.68R
CAPITAL CITY   CLOUDY    41  27  57 E9        29.68R
HARRISBURG     CLOUDY    40  28  62 E7        29.68R
YORK           CLOUDY    40  28  62 N5        29.67S
$$

PAZ038>040-043-044-047-048-054-055-060>062-067>071-082300-
EASTERN PENNSYLVANIA

CITY           SKY/WX    TMP DP  RH WIND       PRES   REMARKS
SCRANTON       CLOUDY    39  20  46 VRB6      29.65F
MOUNT POCONO   CLOUDY    31  15  52 E7        29.64S
ALLENTOWN      CLOUDY    39  22  50 NE7       29.71S
QUAKERTOWN*    CLOUDY    37  27  65 SE5       29.70F
READING        CLOUDY    40  25  55 E3        29.70S
LANCASTER      CLOUDY    38  29  70 SE7       29.69S
COATESVILLE    CLOUDY    37  28  70 E7        29.71R
POTTSTOWN      CLOUDY    38  26  62 VRB3      29.72S
BLUE BELL        N/A     37  27  65 CALM      29.71S
DOYLESTOWN     CLOUDY    37  22  54 CALM      29.71R
WILLOW GROVE   NOT AVBL
NORTH PHILA    CLOUDY    39  24  55 E9        29.74R
PHILADELPHIA   CLOUDY    42  25  50 E3        29.73S
$$




USA.gov is the U.S. government's official web portal to all federal, state and local government web resources and services.